Eastsound, WA
on Friday, November 9, 2012

Friday
Previous Day Next Day
Daily Summary
 ActualAverage (KBLI)Record (KBLI)
Temperature
Mean Temperature °F / °C 45°F / 7°C  
Max Temperature 44°F / 7°C 51°F / 11°C 64°F / 17°C (1976)
Min Temperature 32°F / 0°C 38°F / 3°C 26°F / -3°C (1979)
Degree Days
Heating Degree Days 27 20  
Month to date heating degree days 175  
Cooling Degree Days 0 0  
Month to date cooling degree days 0  
Year to date cooling degree days 42  
Moisture
Dew Point 28°F / -2°C   
Average Humidity 60    
Maximum Humidity 93    
Minimum Humidity 46    
Precipitation
Precipitation 0.00 in / 0.00 cm 0.20 in / 5.08 cm 2.87 in / 7.29 cm (1990)
Month to date precipitation 1.73  
Year to date precipitation 27.54  
Wind
Wind Speed 3 mph / 5 km/h   
Max Wind Speed 9 mph / 14 km/h   
Max Gust Speed mph / km/h   
Visibility 10 miles / 16 kilometers   
Events     

Key: T is trace of precipitation, MM is missing value
Source: NWS Daily Summary
Time(PST)TemperatureDew PointHumidity Pressure Visibility Wind DirectionWind SpeedGust SpeedPrecipitationEvents Conditions
12:15 AM 39.2°F / 4.0°C 32.0°F / 0.0°C 75% 29.85 in / 1010.7 hPa 10.0 miles / 16.1 kilometers Calm Calm - N/A   Clear
12:35 AM 41.0°F / 5.0°C 26.6°F / -3.0°C 57% 29.85 in / 1010.7 hPa 10.0 miles / 16.1 kilometers North 5.8 mph / 9.3 km/h - N/A   Clear
12:55 AM 42.8°F / 6.0°C 28.4°F / -2.0°C 57% 29.86 in / 1011.1 hPa 10.0 miles / 16.1 kilometers NNE 4.6 mph / 7.4 km/h - N/A   Clear
1:15 AM 42.8°F / 6.0°C 30.2°F / -1.0°C 61% 29.85 in / 1010.7 hPa 10.0 miles / 16.1 kilometers North 3.5 mph / 5.6 km/h - N/A   Clear
1:35 AM 42.8°F / 6.0°C 30.2°F / -1.0°C 61% 29.85 in / 1010.7 hPa 10.0 miles / 16.1 kilometers NNE 3.5 mph / 5.6 km/h - N/A   Clear
1:55 AM 41.0°F / 5.0°C 32.0°F / 0.0°C 70% 29.86 in / 1011.1 hPa 10.0 miles / 16.1 kilometers Calm Calm - N/A   Clear
2:15 AM 44.6°F / 7.0°C 28.4°F / -2.0°C 53% 29.86 in / 1011.1 hPa 10.0 miles / 16.1 kilometers Calm Calm - N/A   Clear
2:35 AM 37.4°F / 3.0°C 32.0°F / 0.0°C 81% 29.86 in / 1011.1 hPa 10.0 miles / 16.1 kilometers Calm Calm - N/A   Clear
2:55 AM 37.4°F / 3.0°C 32.0°F / 0.0°C 81% 29.86 in / 1011.1 hPa 10.0 miles / 16.1 kilometers Calm Calm - N/A   Clear
3:15 AM 41.0°F / 5.0°C 32.0°F / 0.0°C 70% 29.86 in / 1011.1 hPa 10.0 miles / 16.1 kilometers Calm Calm - N/A   Clear
3:35 AM 39.2°F / 4.0°C 30.2°F / -1.0°C 70% 29.86 in / 1011.1 hPa 10.0 miles / 16.1 kilometers Calm Calm - N/A   Clear
3:55 AM 35.6°F / 2.0°C 32.0°F / 0.0°C 87% 29.86 in / 1011.1 hPa 10.0 miles / 16.1 kilometers Calm Calm - N/A   Clear
4:15 AM 35.6°F / 2.0°C 32.0°F / 0.0°C 87% 29.86 in / 1011.1 hPa 10.0 miles / 16.1 kilometers Calm Calm - N/A   Clear
4:35 AM 35.6°F / 2.0°C 32.0°F / 0.0°C 87% 29.86 in / 1011.1 hPa 10.0 miles / 16.1 kilometers Calm Calm - N/A   Clear
4:55 AM 32.0°F / 0.0°C 30.2°F / -1.0°C 93% 29.87 in / 1011.4 hPa 10.0 miles / 16.1 kilometers Calm Calm - N/A   Clear
5:15 AM 33.8°F / 1.0°C 30.2°F / -1.0°C 87% 29.87 in / 1011.4 hPa 10.0 miles / 16.1 kilometers Calm Calm - N/A   Clear
5:35 AM 33.8°F / 1.0°C 32.0°F / 0.0°C 93% 29.87 in / 1011.4 hPa 10.0 miles / 16.1 kilometers Calm Calm - N/A   Clear
5:55 AM 33.8°F / 1.0°C 32.0°F / 0.0°C 93% 29.87 in / 1011.4 hPa 10.0 miles / 16.1 kilometers NE 3.5 mph / 5.6 km/h - N/A   Clear
6:15 AM 41.0°F / 5.0°C 26.6°F / -3.0°C 57% 29.87 in / 1011.4 hPa 10.0 miles / 16.1 kilometers Calm Calm - N/A   Clear
6:35 AM 39.2°F / 4.0°C 26.6°F / -3.0°C 61% 29.88 in / 1011.7 hPa 10.0 miles / 16.1 kilometers Calm Calm - N/A   Clear
6:55 AM 39.2°F / 4.0°C 26.6°F / -3.0°C 61% 29.88 in / 1011.7 hPa 10.0 miles / 16.1 kilometers Calm Calm - N/A   Clear
7:15 AM 41.0°F / 5.0°C 24.8°F / -4.0°C 53% 29.88 in / 1011.7 hPa 10.0 miles / 16.1 kilometers Calm Calm - N/A   Clear
7:35 AM 41.0°F / 5.0°C 26.6°F / -3.0°C 57% 29.89 in / 1012.1 hPa 10.0 miles / 16.1 kilometers Calm Calm - N/A   Clear
7:55 AM 41.0°F / 5.0°C 24.8°F / -4.0°C 53% 29.89 in / 1012.1 hPa 10.0 miles / 16.1 kilometers Calm Calm - N/A   Clear
8:15 AM 41.0°F / 5.0°C 26.6°F / -3.0°C 57% 29.89 in / 1012.1 hPa 10.0 miles / 16.1 kilometers Calm Calm - N/A   Clear
8:35 AM 41.0°F / 5.0°C 26.6°F / -3.0°C 57% 29.90 in / 1012.4 hPa 10.0 miles / 16.1 kilometers NE 4.6 mph / 7.4 km/h - N/A   Clear
8:55 AM 41.0°F / 5.0°C 26.6°F / -3.0°C 57% 29.90 in / 1012.4 hPa 10.0 miles / 16.1 kilometers NNE 3.5 mph / 5.6 km/h - N/A   Clear
9:15 AM 42.8°F / 6.0°C 26.6°F / -3.0°C 53% 29.90 in / 1012.4 hPa 10.0 miles / 16.1 kilometers Calm Calm - N/A   Clear
9:35 AM 42.8°F / 6.0°C 26.6°F / -3.0°C 53% 29.90 in / 1012.4 hPa 10.0 miles / 16.1 kilometers Calm Calm - N/A   Clear
9:55 AM 42.8°F / 6.0°C 26.6°F / -3.0°C 53% 29.90 in / 1012.4 hPa 10.0 miles / 16.1 kilometers Calm Calm - N/A   Clear
10:15 AM 42.8°F / 6.0°C 26.6°F / -3.0°C 53% 29.91 in / 1012.8 hPa 10.0 miles / 16.1 kilometers North 5.8 mph / 9.3 km/h - N/A   Clear
10:35 AM 42.8°F / 6.0°C 26.6°F / -3.0°C 53% 29.91 in / 1012.8 hPa 10.0 miles / 16.1 kilometers North 5.8 mph / 9.3 km/h - N/A   Clear
10:55 AM 42.8°F / 6.0°C 26.6°F / -3.0°C 53% 29.91 in / 1012.8 hPa 10.0 miles / 16.1 kilometers North 4.6 mph / 7.4 km/h - N/A   Clear
11:15 AM 44.6°F / 7.0°C 24.8°F / -4.0°C 46% 29.91 in / 1012.8 hPa 10.0 miles / 16.1 kilometers North 3.5 mph / 5.6 km/h - N/A   Clear
11:35 AM 44.6°F / 7.0°C 26.6°F / -3.0°C 49% 29.90 in / 1012.4 hPa 10.0 miles / 16.1 kilometers North 5.8 mph / 9.3 km/h - N/A   Clear
11:55 AM 44.6°F / 7.0°C 26.6°F / -3.0°C 49% 29.90 in / 1012.4 hPa 10.0 miles / 16.1 kilometers North 3.5 mph / 5.6 km/h - N/A   Clear
12:15 PM 44.6°F / 7.0°C 26.6°F / -3.0°C 49% 29.90 in / 1012.4 hPa 10.0 miles / 16.1 kilometers North 8.1 mph / 13.0 km/h - N/A   Clear
12:35 PM 44.6°F / 7.0°C 28.4°F / -2.0°C 53% 29.90 in / 1012.4 hPa 10.0 miles / 16.1 kilometers North 8.1 mph / 13.0 km/h - N/A   Clear
12:55 PM 44.6°F / 7.0°C 28.4°F / -2.0°C 53% 29.89 in / 1012.1 hPa 10.0 miles / 16.1 kilometers North 6.9 mph / 11.1 km/h - N/A   Clear
1:15 PM 44.6°F / 7.0°C 28.4°F / -2.0°C 53% 29.89 in / 1012.1 hPa 10.0 miles / 16.1 kilometers North 6.9 mph / 11.1 km/h - N/A   Clear
1:35 PM 44.6°F / 7.0°C 28.4°F / -2.0°C 53% 29.89 in / 1012.1 hPa 10.0 miles / 16.1 kilometers North 5.8 mph / 9.3 km/h - N/A   Clear
1:55 PM 44.6°F / 7.0°C 28.4°F / -2.0°C 53% 29.89 in / 1012.1 hPa 10.0 miles / 16.1 kilometers North 8.1 mph / 13.0 km/h - N/A   Clear
2:15 PM 44.6°F / 7.0°C 28.4°F / -2.0°C 53% 29.89 in / 1012.1 hPa 10.0 miles / 16.1 kilometers North 4.6 mph / 7.4 km/h - N/A   Clear
2:35 PM 44.6°F / 7.0°C 26.6°F / -3.0°C 49% 29.89 in / 1012.1 hPa 10.0 miles / 16.1 kilometers North 6.9 mph / 11.1 km/h - N/A   Clear
2:55 PM 44.6°F / 7.0°C 28.4°F / -2.0°C 53% 29.89 in / 1012.1 hPa 10.0 miles / 16.1 kilometers NNW 6.9 mph / 11.1 km/h - N/A   Clear
3:15 PM 44.6°F / 7.0°C 28.4°F / -2.0°C 53% 29.89 in / 1012.1 hPa 10.0 miles / 16.1 kilometers North 8.1 mph / 13.0 km/h - N/A   Clear
3:35 PM 44.6°F / 7.0°C 28.4°F / -2.0°C 53% 29.89 in / 1012.1 hPa 10.0 miles / 16.1 kilometers Calm Calm - N/A   Clear
3:55 PM 44.6°F / 7.0°C 28.4°F / -2.0°C 53% 29.89 in / 1012.1 hPa 10.0 miles / 16.1 kilometers North 5.8 mph / 9.3 km/h - N/A   Clear
4:15 PM 42.8°F / 6.0°C 28.4°F / -2.0°C 57% 29.90 in / 1012.4 hPa 10.0 miles / 16.1 kilometers North 3.5 mph / 5.6 km/h - N/A   Clear
4:35 PM 42.8°F / 6.0°C 28.4°F / -2.0°C 57% 29.90 in / 1012.4 hPa 10.0 miles / 16.1 kilometers North 4.6 mph / 7.4 km/h - N/A   Clear
4:55 PM 42.8°F / 6.0°C 28.4°F / -2.0°C 57% 29.90 in / 1012.4 hPa 10.0 miles / 16.1 kilometers North 4.6 mph / 7.4 km/h - N/A   Clear
5:15 PM 42.8°F / 6.0°C 24.8°F / -4.0°C 49% 29.91 in / 1012.8 hPa 10.0 miles / 16.1 kilometers North 3.5 mph / 5.6 km/h - N/A   Partly Cloudy
5:35 PM 42.8°F / 6.0°C 24.8°F / -4.0°C 49% 29.91 in / 1012.8 hPa 10.0 miles / 16.1 kilometers NNE 9.2 mph / 14.8 km/h - N/A   Clear
5:55 PM 42.8°F / 6.0°C 23.0°F / -5.0°C 46% 29.92 in / 1013.1 hPa 10.0 miles / 16.1 kilometers NNE 6.9 mph / 11.1 km/h - N/A   Clear
6:15 PM 41.0°F / 5.0°C 23.0°F / -5.0°C 49% 29.92 in / 1013.1 hPa 10.0 miles / 16.1 kilometers NNE 6.9 mph / 11.1 km/h - N/A   Clear
6:35 PM 41.0°F / 5.0°C 23.0°F / -5.0°C 49% 29.92 in / 1013.1 hPa 10.0 miles / 16.1 kilometers North 5.8 mph / 9.3 km/h - N/A   Clear
6:55 PM 41.0°F / 5.0°C 23.0°F / -5.0°C 49% 29.93 in / 1013.4 hPa 10.0 miles / 16.1 kilometers North 5.8 mph / 9.3 km/h - N/A   Clear
7:15 PM 41.0°F / 5.0°C 23.0°F / -5.0°C 49% 29.93 in / 1013.4 hPa 10.0 miles / 16.1 kilometers Calm Calm - N/A   Clear
7:35 PM 41.0°F / 5.0°C 23.0°F / -5.0°C 49% 29.93 in / 1013.4 hPa 10.0 miles / 16.1 kilometers North 3.5 mph / 5.6 km/h - N/A   Clear
Moon Phase
Nov. 09 Nov. 13 Nov. 20 Nov. 28 Dec. 06
Sunrise:07:11 AM (PST) Moon Rise:01:54 AM (PST)11/9
Sunset:04:38 PM (PST) Moon Set:02:14 PM (PST)11/9

Copyright © 2014 The Weather Underground, Inc.